QPF
0.03 0.04 0.04 0.05 0.04 0.04 0.03 0.03 0.03 0.03 0.02 0.01 0.01 0.01 0.01 0.01 0.01 0.01 0.01 0.02 0.02 0.02 0.02 0.02 0.03 0.03 0.03 0.03 0.03 0.04 0.05 0.07 0.04 0.03 0.04 0.04 0.04 0.05
0.03 0.04 0.04 0.04 0.04 0.04 0.03 0.03 0.03 0.03 0.02 0.02 0.02 0.01 0.01 0.01 0.02 0.02 0.01 0.01 0.02 0.02 0.02 0.02 0.02 0.02 0.02 0.02 0.03 0.03 0.05 0.07 0.06 0.02 0.02 0.03 0.03 0.05
0.02 0.02 0.03 0.04 0.04 0.03 0.04 0.05 0.04 0.04 0.04 0.03 0.03 0.02 0.02 0.02 0.02 0.02 0.02 0.02 0.03 0.03 0.03 0.03 0.02 0.02 0.02 0.02 0.03 0.04 0.05 0.06 0.08 0.04 0.02 0.02 0.02 0.03
0.02 0.03 0.04 0.04 0.03 0.03 0.04 0.06 0.06 0.06 0.05 0.04 0.04 0.03 0.03 0.03 0.02 0.02 0.03 0.03 0.03 0.03 0.03 0.03 0.03 0.02 0.01 0.01 0.02 0.03 0.04 0.05 0.06 0.05 0.03 0.03 0.02 0.02
0.03 0.04 0.04 0.04 0.03 0.02 0.02 0.02 0.02 0.02 0.02 0.02 0.02 0.02 0.03 0.02 0.02 0.01 0.02 0.03 0.03 0.03 0.02 0.02 0.02 0.02 0.02 0.01 0.02 0.02 0.03 0.03 0.04 0.05 0.04 0.03 0.03 0.02
0.03 0.03 0.02 0.01 0.01 0.01 0.01 0.01 0.01 0.01 0.01 0.01 0.01 0.01 0.02 0.02 0.02 0.01 0.01 0.02 0.02 0.02 0.02 0.01 0.01 0.01 0.02 0.02 0.02 0.02 0.03 0.03 0.04 0.04 0.04 0.03 0.02 0.02
0.00 0.01 0.01 0.00 0.01 0.01 0.01 0.01 0.01 0.01 0.01 0.01 0.01 0.01 0.02 0.02 0.01 0.01 0.01 0.02 0.02 0.02 0.01 0.01 0.01 0.01 0.01 0.01 0.01 0.02 0.03 0.04 0.04 0.04 0.04 0.03 0.02 0.02
0.00 0.00 0.01 0.01 0.01 0.01 0.01 0.01 0.01 0.01 0.01 0.01 0.01 0.01 0.01 0.01 0.02 0.02 0.02 0.02 0.02 0.02 0.02 0.01 0.01 0.01 0.01 0.01 0.01 0.01 0.02 0.04 0.04 0.03 0.04 0.03 0.03 0.02
0.00 0.00 0.00 0.01 0.01 0.00 0.00 0.00 0.00 0.00 0.01 0.00 0.01 0.01 0.01 0.01 0.01 0.02 0.02 0.02 0.03 0.03 0.03 0.02 0.01 0.01 0.01 0.01 0.01 0.01 0.01 0.03 0.05 0.03 0.03 0.03 0.03 0.03
0.00 0.00 0.00 0.01 0.01 0.01 0.01 0.00 0.00 0.00 0.00 0.00 0.00 0.01 0.01 0.01 0.02 0.03 0.04 0.04 0.03 0.03 0.04 0.04 0.03 0.02 0.03 0.02 0.02 0.01 0.01 0.02 0.04 0.04 0.03 0.02 0.02 0.02
0.01 0.01 0.01 0.01 0.01 0.02 0.01 0.01 0.00 0.00 0.01 0.00 0.00 0.01 0.02 0.02 0.02 0.03 0.03 0.04 0.04 0.03 0.03 0.04 0.04 0.04 0.05 0.04 0.03 0.02 0.02 0.03 0.04 0.04 0.04 0.03 0.03 0.03
0.01 0.01 0.01 0.00 0.01 0.02 0.01 0.01 0.01 0.00 0.00 0.01 0.01 0.01 0.01 0.02 0.03 0.03 0.03 0.04 0.04 0.04 0.04 0.04 0.05 0.04 0.05 0.05 0.05 0.04 0.03 0.04 0.04 0.05 0.05 0.04 0.04 0.03
0.01 0.01 0.01 0.01 0.01 0.01 0.02 0.01 0.01 0.02 0.01 0.01 0.01 0.01 0.01 0.02 0.03 0.03 0.02 0.03 0.03 0.04 0.04 0.05 0.05 0.06 0.06 0.05 0.05 0.05 0.05 0.05 0.05 0.06 0.06 0.06 0.05 0.05
0.00 0.01 0.01 0.01 0.01 0.01 0.01 0.01 0.01 0.02 0.03 0.02 0.01 0.01 0.01 0.02 0.03 0.04 0.03 0.02 0.02 0.03 0.03 0.04 0.04 0.05 0.06 0.06 0.06 0.06 0.06 0.06 0.05 0.06 0.06 0.07 0.06 0.06
0.00 0.01 0.01 0.00 0.00 0.01 0.01 0.01 0.01 0.03 0.04 0.03 0.02 0.02 0.03 0.03 0.04 0.04 0.04 0.03 0.02 0.02 0.02 0.02 0.03 0.03 0.03 0.04 0.05 0.04 0.04 0.06 0.07 0.08 0.08 0.08 0.08 0.06
0.01 0.01 0.01 0.01 0.01 0.02 0.03 0.02 0.02 0.03 0.03 0.03 0.03 0.03 0.03 0.03 0.04 0.05 0.05 0.03 0.02 0.02 0.02 0.02 0.02 0.02 0.02 0.03 0.03 0.04 0.04 0.04 0.06 0.08 0.08 0.09 0.10 0.07
0.01 0.01 0.01 0.01 0.01 0.02 0.03 0.04 0.03 0.03 0.02 0.02 0.03 0.05 0.05 0.04 0.04 0.05 0.05 0.03 0.02 0.02 0.02 0.02 0.02 0.02 0.02 0.02 0.03 0.04 0.04 0.04 0.04 0.06 0.07 0.08 0.09 0.08
0.00 0.00 0.00 0.00 0.01 0.02 0.04 0.05 0.04 0.03 0.02 0.02 0.03 0.04 0.05 0.05 0.05 0.05 0.05 0.03 0.02 0.02 0.02 0.02 0.02 0.02 0.02 0.03 0.04 0.05 0.05 0.04 0.04 0.04 0.04 0.05 0.06 0.05
0.00 0.00 0.00 0.00 0.00 0.00 0.01 0.02 0.02 0.02 0.01 0.02 0.02 0.03 0.03 0.02 0.02 0.03 0.03 0.03 0.02 0.02 0.02 0.02 0.02 0.02 0.03 0.04 0.06 0.07 0.06 0.04 0.04 0.04 0.03 0.03 0.04 0.04
0.00 0.00 0.00 0.00 0.00 0.00 0.00 0.01 0.02 0.02 0.02 0.02 0.02 0.02 0.02 0.02 0.01 0.01 0.01 0.01 0.01 0.01 0.02 0.02 0.03 0.03 0.04 0.06 0.07 0.05 0.04 0.04 0.04 0.04 0.04 0.03 0.03 0.04
0.00 0.00 0.00 0.00 0.00 0.00 0.01 0.01 0.01 0.01 0.02 0.02 0.02 0.02 0.02 0.02 0.01 0.01 0.01 0.01 0.01 0.01 0.01 0.02 0.03 0.04 0.04 0.04 0.04 0.03 0.02 0.02 0.03 0.04 0.04 0.03 0.03 0.04
0.01 0.01 0.01 0.01 0.01 0.01 0.01 0.01 0.01 0.01 0.01 0.01 0.01 0.01 0.02 0.02 0.01 0.01 0.00 0.00 0.00 0.01 0.02 0.02 0.03 0.03 0.02 0.02 0.02 0.02 0.02 0.02 0.02 0.03 0.03 0.03 0.03 0.04
0.01 0.01 0.01 0.01 0.01 0.02 0.02 0.01 0.01 0.01 0.01 0.01 0.01 0.01 0.01 0.01 0.01 0.01 0.00 0.00 0.01 0.01 0.02 0.02 0.03 0.02 0.01 0.01 0.01 0.01 0.02 0.02 0.02 0.02 0.03 0.04 0.04 0.03
MSLP
1020.16 1020.35 1020.53 1020.68 1020.76 1020.75 1020.64 1020.44 1020.16 1019.81 1019.43 1019.03 1018.62 1018.21 1017.81 1017.40 1016.99 1016.58 1016.17 1015.77 1015.38 1015.01 1014.68 1014.40 1014.15 1013.95 1013.80 1013.68 1013.59 1013.53 1013.48 1013.44 1013.40 1013.34 1013.27 1013.18 1013.07 1012.96
1020.56 1020.72 1020.87 1020.98 1021.02 1020.97 1020.83 1020.61 1020.32 1019.98 1019.60 1019.20 1018.80 1018.39 1017.97 1017.55 1017.12 1016.67 1016.23 1015.79 1015.36 1014.97 1014.62 1014.32 1014.07 1013.86 1013.70 1013.57 1013.46 1013.37 1013.28 1013.20 1013.12 1013.02 1012.92 1012.81 1012.69 1012.57
1020.76 1020.88 1020.99 1021.06 1021.06 1020.99 1020.83 1020.61 1020.32 1019.99 1019.62 1019.24 1018.85 1018.44 1018.02 1017.58 1017.12 1016.65 1016.17 1015.69 1015.23 1014.81 1014.44 1014.12 1013.85 1013.62 1013.44 1013.27 1013.13 1012.99 1012.86 1012.73 1012.60 1012.47 1012.34 1012.22 1012.10 1012.00
1020.84 1020.92 1020.98 1021.01 1020.98 1020.88 1020.71 1020.49 1020.21 1019.89 1019.54 1019.18 1018.80 1018.39 1017.96 1017.51 1017.02 1016.52 1016.01 1015.50 1015.01 1014.56 1014.16 1013.82 1013.52 1013.26 1013.04 1012.83 1012.63 1012.44 1012.25 1012.07 1011.89 1011.72 1011.58 1011.46 1011.37 1011.32
1020.89 1020.91 1020.93 1020.91 1020.84 1020.72 1020.54 1020.30 1020.03 1019.72 1019.39 1019.04 1018.66 1018.26 1017.82 1017.35 1016.85 1016.32 1015.77 1015.24 1014.72 1014.25 1013.82 1013.44 1013.11 1012.81 1012.54 1012.28 1012.03 1011.78 1011.53 1011.29 1011.08 1010.89 1010.74 1010.64 1010.59 1010.59
1020.96 1020.93 1020.89 1020.82 1020.72 1020.56 1020.36 1020.11 1019.83 1019.52 1019.20 1018.84 1018.47 1018.06 1017.61 1017.12 1016.60 1016.05 1015.49 1014.94 1014.40 1013.91 1013.45 1013.05 1012.68 1012.34 1012.02 1011.71 1011.40 1011.09 1010.80 1010.52 1010.28 1010.08 1009.94 1009.87 1009.86 1009.91
1021.08 1021.00 1020.90 1020.78 1020.63 1020.43 1020.20 1019.93 1019.63 1019.30 1018.96 1018.60 1018.21 1017.79 1017.33 1016.84 1016.31 1015.75 1015.18 1014.62 1014.08 1013.57 1013.10 1012.67 1012.28 1011.90 1011.54 1011.19 1010.83 1010.48 1010.15 1009.84 1009.59 1009.39 1009.27 1009.23 1009.26 1009.36
1021.24 1021.11 1020.96 1020.79 1020.58 1020.34 1020.06 1019.75 1019.41 1019.06 1018.70 1018.31 1017.90 1017.47 1017.01 1016.51 1015.98 1015.43 1014.87 1014.32 1013.78 1013.28 1012.80 1012.36 1011.95 1011.55 1011.16 1010.78 1010.39 1010.01 1009.65 1009.34 1009.07 1008.88 1008.78 1008.76 1008.83 1008.96
1021.41 1021.24 1021.04 1020.82 1020.56 1020.26 1019.93 1019.57 1019.19 1018.80 1018.40 1017.99 1017.56 1017.12 1016.65 1016.16 1015.64 1015.11 1014.57 1014.04 1013.53 1013.04 1012.58 1012.15 1011.73 1011.32 1010.92 1010.51 1010.10 1009.71 1009.33 1009.00 1008.73 1008.54 1008.44 1008.44 1008.52 1008.67
1021.56 1021.35 1021.11 1020.84 1020.53 1020.18 1019.80 1019.40 1018.97 1018.54 1018.11 1017.67 1017.22 1016.76 1016.30 1015.81 1015.32 1014.82 1014.31 1013.82 1013.34 1012.88 1012.44 1012.03 1011.62 1011.21 1010.80 1010.38 1009.96 1009.55 1009.15 1008.80 1008.52 1008.31 1008.19 1008.17 1008.24 1008.37
1021.65 1021.42 1021.15 1020.85 1020.50 1020.11 1019.69 1019.24 1018.78 1018.31 1017.84 1017.38 1016.92 1016.45 1015.99 1015.52 1015.05 1014.58 1014.12 1013.66 1013.22 1012.80 1012.39 1011.99 1011.60 1011.19 1010.78 1010.35 1009.91 1009.47 1009.05 1008.66 1008.32 1008.07 1007.90 1007.83 1007.86 1007.96
1021.70 1021.46 1021.17 1020.85 1020.48 1020.06 1019.61 1019.14 1018.65 1018.16 1017.67 1017.18 1016.71 1016.24 1015.78 1015.32 1014.87 1014.43 1013.99 1013.57 1013.17 1012.77 1012.39 1012.02 1011.63 1011.24 1010.81 1010.37 1009.89 1009.41 1008.93 1008.47 1008.06 1007.72 1007.47 1007.33 1007.28 1007.33
1021.72 1021.48 1021.19 1020.86 1020.49 1020.07 1019.61 1019.13 1018.63 1018.12 1017.62 1017.12 1016.63 1016.15 1015.69 1015.24 1014.80 1014.37 1013.95 1013.55 1013.17 1012.80 1012.43 1012.07 1011.69 1011.29 1010.85 1010.37 1009.85 1009.30 1008.74 1008.18 1007.67 1007.21 1006.85 1006.60 1006.46 1006.45
1021.73 1021.51 1021.24 1020.92 1020.57 1020.16 1019.71 1019.24 1018.74 1018.23 1017.72 1017.21 1016.71 1016.22 1015.75 1015.28 1014.84 1014.40 1013.99 1013.59 1013.21 1012.85 1012.49 1012.13 1011.74 1011.33 1010.86 1010.34 1009.76 1009.13 1008.47 1007.80 1007.15 1006.56 1006.06 1005.69 1005.45 1005.35
1021.77 1021.57 1021.33 1021.04 1020.72 1020.34 1019.92 1019.46 1018.98 1018.48 1017.97 1017.45 1016.94 1016.43 1015.94 1015.45 1014.98 1014.52 1014.09 1013.68 1013.29 1012.91 1012.55 1012.17 1011.78 1011.34 1010.85 1010.28 1009.64 1008.93 1008.16 1007.37 1006.59 1005.86 1005.22 1004.71 1004.36 1004.18
1021.82 1021.66 1021.46 1021.22 1020.93 1020.59 1020.21 1019.79 1019.33 1018.84 1018.34 1017.82 1017.29 1016.76 1016.23 1015.71 1015.20 1014.71 1014.25 1013.80 1013.39 1012.99 1012.61 1012.22 1011.81 1011.35 1010.83 1010.23 1009.53 1008.75 1007.90 1007.01 1006.10 1005.24 1004.47 1003.84 1003.38 1003.12
1021.88 1021.76 1021.61 1021.42 1021.18 1020.89 1020.55 1020.16 1019.73 1019.26 1018.77 1018.24 1017.70 1017.15 1016.59 1016.03 1015.48 1014.95 1014.44 1013.96 1013.52 1013.10 1012.69 1012.29 1011.87 1011.40 1010.87 1010.24 1009.52 1008.69 1007.79 1006.82 1005.83 1004.88 1004.00 1003.27 1002.72 1002.38
1021.93 1021.86 1021.75 1021.61 1021.42 1021.18 1020.88 1020.53 1020.13 1019.68 1019.19 1018.67 1018.12 1017.55 1016.96 1016.37 1015.78 1015.21 1014.67 1014.16 1013.68 1013.24 1012.82 1012.42 1011.99 1011.53 1011.00 1010.39 1009.66 1008.84 1007.91 1006.92 1005.90 1004.89 1003.96 1003.16 1002.54 1002.14
1021.95 1021.92 1021.87 1021.77 1021.62 1021.42 1021.16 1020.84 1020.47 1020.04 1019.57 1019.05 1018.50 1017.92 1017.32 1016.71 1016.10 1015.51 1014.94 1014.40 1013.91 1013.46 1013.04 1012.63 1012.22 1011.78 1011.28 1010.69 1010.00 1009.21 1008.32 1007.35 1006.34 1005.34 1004.40 1003.58 1002.93 1002.47
1021.94 1021.95 1021.93 1021.87 1021.76 1021.58 1021.35 1021.07 1020.72 1020.32 1019.87 1019.37 1018.83 1018.26 1017.66 1017.05 1016.44 1015.84 1015.26 1014.72 1014.22 1013.77 1013.36 1012.96 1012.57 1012.16 1011.70 1011.17 1010.54 1009.81 1008.99 1008.09 1007.15 1006.20 1005.30 1004.50 1003.85 1003.37
1021.90 1021.95 1021.96 1021.92 1021.83 1021.68 1021.47 1021.21 1020.89 1020.51 1020.09 1019.62 1019.10 1018.56 1017.98 1017.40 1016.80 1016.22 1015.65 1015.12 1014.64 1014.19 1013.79 1013.41 1013.05 1012.67 1012.26 1011.79 1011.23 1010.59 1009.87 1009.08 1008.24 1007.39 1006.57 1005.83 1005.21 1004.73
1021.85 1021.93 1021.95 1021.93 1021.85 1021.72 1021.53 1021.28 1020.99 1020.64 1020.25 1019.81 1019.34 1018.83 1018.30 1017.75 1017.20 1016.65 1016.12 1015.61 1015.14 1014.72 1014.33 1013.98 1013.63 1013.29 1012.92 1012.51 1012.03 1011.49 1010.87 1010.20 1009.48 1008.76 1008.05 1007.40 1006.84 1006.40
1021.80 1021.89 1021.93 1021.91 1021.84 1021.72 1021.54 1021.32 1021.04 1020.73 1020.38 1019.99 1019.56 1019.11 1018.63 1018.14 1017.63 1017.13 1016.64 1016.17 1015.74 1015.33 1014.96 1014.62 1014.30 1013.98 1013.64 1013.28 1012.88 1012.42 1011.91 1011.36 1010.77 1010.18 1009.60 1009.06 1008.59 1008.20
Thickness
5650 5649 5646 5643 5640 5637 5634 5631 5628 5626 5625 5625 5624 5624 5623 5622 5621 5621 5620 5620 5620 5619 5618 5616 5615 5614 5614 5613 5613 5613 5613 5613 5614 5615 5616 5617 5619 5620
5647 5644 5642 5639 5635 5632 5629 5626 5623 5621 5619 5619 5618 5618 5617 5616 5616 5614 5614 5613 5613 5612 5611 5609 5607 5607 5607 5606 5606 5605 5605 5605 5606 5608 5609 5610 5611 5613
5643 5640 5637 5634 5631 5627 5625 5622 5619 5616 5614 5614 5612 5611 5611 5610 5609 5608 5608 5607 5607 5606 5604 5602 5601 5599 5599 5598 5598 5598 5597 5597 5598 5600 5601 5602 5604 5606
5639 5636 5633 5630 5627 5623 5620 5617 5614 5612 5610 5609 5608 5606 5605 5604 5602 5601 5601 5601 5600 5600 5599 5597 5595 5594 5593 5592 5592 5591 5590 5590 5591 5592 5593 5595 5596 5598
5635 5632 5629 5626 5623 5620 5616 5613 5610 5608 5605 5603 5602 5600 5599 5597 5595 5595 5594 5593 5594 5594 5593 5591 5590 5588 5587 5586 5585 5584 5583 5583 5583 5584 5585 5587 5588 5590
5631 5628 5625 5622 5620 5616 5613 5609 5606 5603 5601 5599 5597 5595 5593 5591 5589 5588 5588 5587 5586 5586 5586 5585 5584 5582 5581 5580 5579 5578 5577 5576 5576 5577 5579 5580 5581 5582
5627 5624 5622 5620 5617 5613 5610 5607 5603 5600 5597 5595 5593 5591 5589 5586 5584 5582 5581 5580 5580 5579 5579 5579 5578 5577 5575 5574 5573 5572 5571 5571 5571 5572 5572 5573 5575 5576
5622 5621 5619 5616 5614 5610 5607 5604 5601 5597 5595 5591 5589 5587 5585 5582 5579 5577 5574 5573 5574 5574 5572 5573 5572 5571 5570 5569 5568 5567 5566 5566 5566 5566 5566 5567 5568 5569
5619 5617 5616 5613 5610 5607 5604 5601 5598 5595 5593 5589 5586 5584 5582 5580 5575 5573 5570 5568 5568 5568 5565 5568 5567 5566 5565 5565 5564 5563 5561 5561 5560 5561 5561 5562 5562 5563
5615 5613 5611 5608 5606 5603 5600 5597 5594 5592 5589 5587 5585 5582 5580 5576 5572 5569 5566 5564 5563 5562 5560 5561 5562 5561 5562 5560 5559 5558 5557 5556 5556 5556 5556 5556 5556 5557
5611 5609 5607 5604 5602 5598 5596 5593 5591 5589 5587 5585 5582 5580 5577 5574 5570 5566 5563 5561 5562 5561 5557 5555 5557 5556 5557 5556 5555 5553 5552 5551 5551 5551 5551 5551 5550 5550
5606 5605 5602 5600 5597 5594 5591 5588 5586 5585 5583 5582 5579 5577 5574 5571 5568 5565 5562 5559 5558 5556 5555 5550 5551 5549 5551 5552 5550 5548 5547 5546 5546 5545 5545 5545 5544 5543
5602 5600 5599 5596 5593 5590 5587 5585 5583 5581 5578 5576 5575 5573 5571 5569 5566 5563 5559 5557 5555 5553 5550 5546 5545 5543 5542 5544 5545 5544 5543 5542 5541 5540 5539 5539 5538 5538
5599 5597 5595 5592 5589 5587 5584 5581 5578 5576 5574 5572 5571 5569 5568 5566 5564 5561 5557 5554 5552 5549 5546 5541 5539 5538 5537 5537 5538 5538 5538 5537 5536 5535 5534 5533 5533 5533
5595 5593 5591 5588 5586 5584 5581 5578 5575 5572 5570 5568 5568 5567 5565 5562 5560 5557 5555 5552 5549 5546 5543 5539 5536 5534 5532 5532 5532 5531 5531 5531 5530 5529 5528 5528 5528 5528
5591 5589 5587 5585 5583 5581 5578 5576 5572 5570 5567 5565 5564 5563 5560 5558 5556 5553 5551 5548 5546 5544 5540 5536 5533 5530 5528 5527 5526 5525 5525 5524 5524 5522 5522 5523 5523 5524
5588 5585 5584 5582 5580 5578 5575 5573 5570 5567 5564 5561 5559 5558 5556 5555 5553 5549 5546 5543 5540 5540 5538 5534 5530 5526 5524 5521 5521 5521 5520 5519 5518 5517 5517 5518 5519 5519
5584 5583 5581 5579 5577 5575 5572 5570 5567 5565 5562 5559 5556 5554 5552 5551 5549 5545 5542 5539 5537 5534 5532 5529 5525 5522 5520 5517 5514 5515 5515 5515 5515 5513 5512 5513 5515 5515
5581 5581 5579 5577 5574 5572 5569 5567 5565 5563 5559 5556 5554 5552 5549 5547 5544 5541 5538 5535 5533 5530 5527 5523 5519 5517 5516 5515 5513 5509 5509 5509 5509 5508 5508 5508 5509 5510
5580 5578 5577 5575 5572 5570 5568 5565 5563 5561 5558 5555 5552 5549 5546 5544 5541 5538 5535 5532 5529 5526 5523 5519 5515 5512 5510 5509 5508 5506 5504 5504 5504 5504 5504 5503 5503 5504
5579 5576 5575 5573 5571 5568 5566 5563 5561 5558 5556 5553 5550 5547 5545 5541 5539 5536 5533 5528 5525 5523 5521 5518 5513 5508 5506 5503 5502 5502 5501 5500 5500 5500 5501 5501 5502 5503
5577 5575 5573 5571 5568 5566 5564 5561 5559 5556 5554 5551 5548 5545 5543 5540 5536 5533 5530 5527 5524 5521 5518 5515 5510 5506 5503 5502 5501 5499 5498 5497 5496 5496 5496 5497 5498 5500
5576 5573 5571 5569 5567 5564 5562 5560 5558 5555 5552 5549 5546 5544 5541 5538 5534 5531 5528 5525 5522 5519 5516 5512 5508 5503 5501 5499 5498 5497 5496 5495 5494 5494 5494 5493 5494 5494